Location: Paris
(48.6709°N, 2.3750°E)
Time: 13:09:13
(UTC+02:00)

NOAA 18 - Pass Details

Date: 29 June 2022
Orbit: 839 x 860 km, 98.9° (Epoch: 11 August)

Event Time Altitude Azimuth Distance (km) Brightness Sun altitude
Exits shadow 23:21:04 11° 165° (SSE) 2,377 7.0 -10.4°
Maximum altitude 23:26:20 86° 254° (WSW) 865 5.3 -10.9°
Drops below altitude 10° 23:31:55 10° 344° (NNW) 2,504 9.0 -11.4°
Sets 23:34:18 0° 345° (NNW) 3,447 10.0 -11.6°
